Location: Zagreb
(45.8000°N, 16.0000°E)
Time: 00:29:42
(UTC+01:00)

Transit 2A Rocket - Pass Details

Date: 09 October 2020
Orbit: 586 x 916 km, 66.7° (Epoch: 28 October)

Event Time Altitude Azimuth Distance (km) Brightness Sun altitude
Rises 14:18:34 0° 183° (S) 3,509 9.3 33.5°
Reaches altitude 10° 14:21:15 10° 175° (S) 2,590 8.7 33.2°
Maximum altitude 14:26:42 36° 111° (ESE) 1,418 6.6 32.8°
Drops below altitude 10° 14:32:09 10° 48° (NE) 2,586 7.3 32.3°
Sets 14:34:49 0° 40° (NE) 3,504 7.9 32.0°
